Time,TemperatureF,DewpointF,PressureIn,WindDirection,WindDirectionDegrees,WindSpeedMPH,WindSpeedGustMPH,Humidity,HourlyPrecipIn,Conditions,Clouds,dailyrainin,SoftwareType,DateUTC
2013-05-29 00:02:00,64.0,60.0,30.00,North,354,0.0,32.0,86,0.06,,,0.24,,2013-05-29 05:02:00,
2013-05-29 00:12:00,64.0,60.0,30.00,North,354,0.0,32.0,86,0.06,,,0.24,,2013-05-29 05:12:00,
2013-05-29 00:22:00,64.0,60.0,30.00,South,177,3.0,32.0,86,0.05,,,0.25,,2013-05-29 05:22:00,
2013-05-29 00:32:00,64.0,60.0,30.00,SE,143,0.0,11.0,86,0.00,,,0.26,,2013-05-29 05:32:00,
2013-05-29 00:42:00,64.0,60.0,30.00,SE,143,0.0,11.0,86,0.00,,,0.26,,2013-05-29 05:42:00,
2013-05-29 00:52:00,63.0,59.0,30.00,SSE,161,5.0,11.0,86,0.00,,,0.26,,2013-05-29 05:52:00,
2013-05-29 01:01:00,63.0,59.0,30.00,SW,221,7.0,11.0,86,0.00,,,0.26,,2013-05-29 06:01:00,
2013-05-29 01:11:00,63.0,59.0,30.00,SW,221,7.0,11.0,86,0.00,,,0.26,,2013-05-29 06:11:00,
2013-05-29 01:21:00,63.0,59.0,30.00,SW,229,5.0,13.0,86,0.00,,,0.26,,2013-05-29 06:21:00,
2013-05-29 01:31:00,63.0,59.0,30.00,SSW,210,6.0,13.0,86,0.00,,,0.26,,2013-05-29 06:31:00,
2013-05-29 01:42:00,63.0,59.0,30.00,SSW,210,6.0,13.0,86,0.00,,,0.26,,2013-05-29 06:42:00,
2013-05-29 01:52:00,64.0,60.0,30.00,SW,232,5.0,13.0,86,0.00,,,0.26,,2013-05-29 06:52:00,
2013-05-29 02:01:00,64.0,60.0,30.00,SSW,212,6.0,16.0,86,0.00,,,0.26,,2013-05-29 07:01:00,
2013-05-29 02:11:00,64.0,60.0,30.00,SSW,212,6.0,16.0,86,0.00,,,0.26,,2013-05-29 07:11:00,
2013-05-29 02:21:00,64.0,60.0,30.00,SW,222,5.0,16.0,86,0.00,,,0.26,,2013-05-29 07:21:00,
2013-05-29 02:34:00,64.0,60.0,30.00,SW,233,5.0,16.0,86,0.00,,,0.26,,2013-05-29 07:34:00,
2013-05-29 02:42:00,64.0,60.0,30.00,SW,233,5.0,16.0,86,0.00,,,0.26,,2013-05-29 07:42:00,
2013-05-29 02:52:00,64.0,60.0,30.00,SW,228,1.0,16.0,86,0.00,,,0.26,,2013-05-29 07:52:00,
2013-05-29 03:02:00,64.0,60.0,30.00,NNW,346,0.0,16.0,86,0.00,,,0.26,,2013-05-29 08:02:00,
2013-05-29 03:11:00,64.0,60.0,30.00,NNW,346,0.0,16.0,86,0.00,,,0.26,,2013-05-29 08:11:00,
2013-05-29 03:21:00,63.0,59.0,30.00,NNE,14,0.0,16.0,86,0.00,,,0.26,,2013-05-29 08:21:00,
2013-05-29 03:32:00,62.0,58.0,30.00,NNW,340,1.0,16.0,86,0.00,,,0.26,,2013-05-29 08:32:00,
2013-05-29 03:42:00,62.0,58.0,30.00,NNW,340,1.0,16.0,86,0.00,,,0.26,,2013-05-29 08:42:00,
2013-05-29 03:52:00,65.0,61.0,30.00,SW,233,9.0,24.0,86,0.00,,,0.26,,2013-05-29 08:52:00,
2013-05-29 04:01:00,65.0,61.0,30.00,South,184,13.0,30.0,86,0.00,,,0.26,,2013-05-29 09:01:00,
2013-05-29 04:11:00,65.0,61.0,30.00,South,184,13.0,30.0,86,0.00,,,0.26,,2013-05-29 09:11:00,
2013-05-29 04:21:00,64.0,60.0,30.00,SSW,213,12.0,35.0,86,0.01,,,0.27,,2013-05-29 09:21:00,
2013-05-29 04:33:00,64.0,60.0,30.00,SE,144,6.0,35.0,86,0.05,,,0.31,,2013-05-29 09:33:00,
2013-05-29 04:42:00,64.0,60.0,30.00,SE,144,6.0,35.0,86,0.05,,,0.31,,2013-05-29 09:42:00,
2013-05-29 04:52:00,63.0,59.0,30.00,SSE,151,2.0,35.0,86,0.07,,,0.33,,2013-05-29 09:52:00,
2013-05-29 05:03:00,63.0,59.0,30.00,SSE,160,5.0,35.0,86,0.07,,,0.33,,2013-05-29 10:03:00,
2013-05-29 05:12:00,63.0,59.0,30.00,SSE,160,5.0,35.0,86,0.07,,,0.33,,2013-05-29 10:12:00,
2013-05-29 05:22:00,63.0,59.0,30.00,SSE,153,5.0,35.0,86,0.05,,,0.33,,2013-05-29 10:22:00,
2013-05-29 05:32:00,63.0,59.0,30.00,SE,138,1.0,35.0,86,0.02,,,0.26,,2013-05-29 10:32:00,
2013-05-29 05:42:00,63.0,59.0,30.00,SE,138,1.0,35.0,86,0.02,,,0.26,,2013-05-29 10:42:00,
2013-05-29 05:53:00,63.0,59.0,30.00,South,173,2.0,35.0,86,0.00,,,0.23,,2013-05-29 10:53:00,
2013-05-29 06:02:00,62.0,58.0,30.00,SW,234,5.0,35.0,86,0.00,,,0.21,,2013-05-29 11:02:00,
2013-05-29 06:12:00,62.0,58.0,30.00,SW,234,5.0,35.0,86,0.00,,,0.21,,2013-05-29 11:12:00,
2013-05-29 06:22:00,63.0,59.0,30.00,South,183,8.0,35.0,86,0.00,,,0.21,,2013-05-29 11:22:00,
2013-05-29 06:32:00,63.0,59.0,30.00,SSW,212,5.0,35.0,86,0.00,,,0.21,,2013-05-29 11:32:00,
2013-05-29 06:42:00,63.0,59.0,30.00,SSW,212,5.0,35.0,86,0.00,,,0.21,,2013-05-29 11:42:00,
2013-05-29 06:52:00,62.0,58.0,30.00,WSW,258,1.0,35.0,86,0.00,,,0.21,,2013-05-29 11:52:00,
2013-05-29 07:01:00,63.0,59.0,30.00,NW,318,0.0,35.0,86,0.00,,,0.21,,2013-05-29 12:01:00,
2013-05-29 07:11:00,63.0,59.0,30.00,NW,318,0.0,35.0,86,0.00,,,0.21,,2013-05-29 12:11:00,
2013-05-29 07:21:00,63.0,59.0,30.00,South,172,0.0,35.0,86,0.00,,,0.21,,2013-05-29 12:21:00,
2013-05-29 07:32:00,64.0,60.0,30.00,SSW,208,3.0,35.0,86,0.00,,,0.21,,2013-05-29 12:32:00,
2013-05-29 07:42:00,64.0,60.0,30.00,SSW,208,3.0,35.0,86,0.00,,,0.21,,2013-05-29 12:42:00,
2013-05-29 07:52:00,64.0,60.0,30.00,South,183,2.0,35.0,86,0.00,,,0.21,,2013-05-29 12:52:00,
2013-05-29 08:02:00,66.0,62.0,30.00,SSW,203,2.0,35.0,86,0.00,,,0.21,,2013-05-29 13:02:00,
2013-05-29 08:11:00,66.0,62.0,30.00,SSW,203,2.0,35.0,86,0.00,,,0.21,,2013-05-29 13:11:00,
2013-05-29 08:21:00,67.0,63.0,30.00,SSE,150,2.0,35.0,86,0.00,,,0.21,,2013-05-29 13:21:00,
2013-05-29 08:32:00,70.0,66.0,30.00,SSW,196,6.0,35.0,86,0.00,,,0.21,,2013-05-29 13:32:00,
2013-05-29 08:42:00,70.0,66.0,30.00,SSW,196,6.0,35.0,86,0.00,,,0.21,,2013-05-29 13:42:00,
2013-05-29 08:52:00,71.0,67.0,30.00,SSE,165,3.0,35.0,86,0.00,,,0.20,,2013-05-29 13:52:00,
2013-05-29 09:02:00,71.0,67.0,30.00,SSE,161,3.0,35.0,86,0.00,,,0.20,,2013-05-29 14:02:00,
2013-05-29 09:11:00,71.0,67.0,30.00,SSE,161,3.0,35.0,86,0.00,,,0.20,,2013-05-29 14:11:00,
2013-05-29 09:21:00,72.0,68.0,30.00,SSE,161,2.0,35.0,86,0.00,,,0.20,,2013-05-29 14:21:00,
2013-05-29 09:32:00,72.0,68.0,30.00,South,170,3.0,35.0,86,0.00,,,0.20,,2013-05-29 14:32:00,
2013-05-29 09:41:00,72.0,68.0,30.00,South,170,3.0,35.0,86,0.00,,,0.20,,2013-05-29 14:41:00,
2013-05-29 09:52:00,73.0,69.0,30.00,South,190,5.0,35.0,86,0.00,,,0.20,,2013-05-29 14:52:00,
2013-05-29 10:01:00,73.0,69.0,30.00,SE,137,6.0,35.0,86,0.00,,,0.20,,2013-05-29 15:01:00,
2013-05-29 10:11:00,74.0,70.0,30.00,SW,216,2.0,35.0,86,0.00,,,0.20,,2013-05-29 15:11:00,
2013-05-29 10:21:00,74.0,70.0,30.00,SW,216,2.0,35.0,86,0.00,,,0.20,,2013-05-29 15:21:00,
2013-05-29 10:33:00,75.0,71.0,30.00,SSE,159,8.0,35.0,86,0.00,,,0.20,,2013-05-29 15:33:00,
2013-05-29 10:42:00,75.0,71.0,30.00,SSE,159,8.0,35.0,86,0.00,,,0.20,,2013-05-29 15:42:00,
2013-05-29 10:53:00,76.0,72.0,30.00,South,175,6.0,35.0,86,0.00,,,0.20,,2013-05-29 15:53:00,
2013-05-29 11:03:00,75.0,71.0,30.00,South,169,5.0,35.0,86,0.00,,,0.20,,2013-05-29 16:03:00,
2013-05-29 11:12:00,75.0,71.0,30.00,South,169,5.0,35.0,86,0.00,,,0.20,,2013-05-29 16:12:00,
2013-05-29 11:22:00,76.0,72.0,30.00,South,184,3.0,35.0,86,0.00,,,0.20,,2013-05-29 16:22:00,
2013-05-29 11:32:00,77.0,72.0,30.00,South,188,6.0,35.0,86,0.00,,,0.20,,2013-05-29 16:32:00,
2013-05-29 11:42:00,77.0,72.0,30.00,South,188,6.0,35.0,86,0.00,,,0.20,,2013-05-29 16:42:00,
2013-05-29 11:52:00,78.0,73.0,30.00,East,90,3.0,35.0,86,0.00,,,0.20,,2013-05-29 16:52:00,
2013-05-29 12:02:00,77.0,72.0,30.00,SW,216,5.0,35.0,86,0.00,,,0.20,,2013-05-29 17:02:00,
2013-05-29 12:12:00,77.0,72.0,30.00,SW,216,5.0,35.0,86,0.00,,,0.20,,2013-05-29 17:12:00,
2013-05-29 12:22:00,78.0,73.0,30.00,South,173,7.0,35.0,86,0.00,,,0.20,,2013-05-29 17:22:00,
2013-05-29 12:32:00,79.0,74.0,30.00,South,170,3.0,35.0,86,0.00,,,0.20,,2013-05-29 17:32:00,
2013-05-29 12:42:00,79.0,74.0,30.00,South,170,3.0,35.0,86,0.00,,,0.20,,2013-05-29 17:42:00,
2013-05-29 12:52:00,79.0,74.0,30.00,South,170,3.0,35.0,86,0.00,,,0.20,,2013-05-29 17:52:00,
2013-05-29 13:01:00,79.0,74.0,30.00,South,170,3.0,35.0,86,0.00,,,0.20,,2013-05-29 18:01:00,
2013-05-29 13:13:00,81.0,76.0,30.00,SE,137,5.0,35.0,86,0.00,,,0.20,,2013-05-29 18:13:00,
2013-05-29 13:22:00,81.0,76.0,30.00,SE,137,5.0,35.0,86,0.00,,,0.20,,2013-05-29 18:22:00,
2013-05-29 13:32:00,82.0,77.0,30.00,SSW,194,5.0,35.0,86,0.00,,,0.20,,2013-05-29 18:32:00,
2013-05-29 13:42:00,82.0,77.0,30.00,SSW,194,5.0,35.0,86,0.00,,,0.20,,2013-05-29 18:42:00,
2013-05-29 13:51:00,82.0,77.0,30.00,South,169,7.0,35.0,86,0.00,,,0.20,,2013-05-29 18:51:00,
2013-05-29 14:02:00,83.0,78.0,30.00,SSW,204,6.0,35.0,86,0.00,,,0.20,,2013-05-29 19:02:00,
2013-05-29 14:11:00,83.0,78.0,30.00,SSW,200,6.0,35.0,86,0.00,,,0.20,,2013-05-29 19:11:00,
2013-05-29 14:21:00,83.0,78.0,30.00,SSW,200,6.0,35.0,86,0.00,,,0.20,,2013-05-29 19:21:00,
2013-05-29 14:32:00,84.0,79.0,30.00,SSE,161,7.0,35.0,86,0.00,,,0.20,,2013-05-29 19:32:00,
2013-05-29 14:44:00,83.0,78.0,30.00,South,170,7.0,35.0,86,0.00,,,0.20,,2013-05-29 19:44:00,
2013-05-29 14:53:00,83.0,78.0,30.00,South,170,7.0,35.0,86,0.00,,,0.20,,2013-05-29 19:53:00,
2013-05-29 15:02:00,83.0,78.0,30.00,South,175,6.0,35.0,86,0.00,,,0.20,,2013-05-29 20:02:00,
2013-05-29 15:11:00,84.0,79.0,30.00,SSW,197,6.0,35.0,86,0.00,,,0.20,,2013-05-29 20:11:00,
2013-05-29 15:22:00,84.0,79.0,30.00,SSW,197,6.0,35.0,86,0.00,,,0.20,,2013-05-29 20:22:00,
2013-05-29 15:32:00,84.0,79.0,30.00,SSW,197,6.0,35.0,86,0.00,,,0.20,,2013-05-29 20:32:00,
2013-05-29 15:42:00,84.0,79.0,30.00,SSW,197,6.0,35.0,86,0.00,,,0.20,,2013-05-29 20:42:00,
2013-05-29 15:52:00,84.0,79.0,30.00,SSE,161,5.0,35.0,86,0.00,,,0.20,,2013-05-29 20:52:00,
2013-05-29 16:02:00,84.0,79.0,30.00,South,171,7.0,35.0,86,0.00,,,0.20,,2013-05-29 21:02:00,
2013-05-29 16:12:00,84.0,79.0,30.00,South,171,7.0,35.0,86,0.00,,,0.20,,2013-05-29 21:12:00,
2013-05-29 16:22:00,85.0,80.0,30.00,South,178,5.0,35.0,86,0.00,,,0.20,,2013-05-29 21:22:00,
2013-05-29 16:33:00,84.0,79.0,30.00,South,171,3.0,35.0,86,0.00,,,0.20,,2013-05-29 21:33:00,
2013-05-29 16:43:00,84.0,79.0,30.00,South,171,3.0,35.0,86,0.00,,,0.20,,2013-05-29 21:43:00,
2013-05-29 16:53:00,84.0,79.0,30.00,South,171,3.0,35.0,86,0.00,,,0.20,,2013-05-29 21:53:00,
2013-05-29 17:03:00,85.0,80.0,30.00,South,176,6.0,35.0,86,0.00,,,0.20,,2013-05-29 22:03:00,
2013-05-29 17:12:00,85.0,80.0,30.00,South,176,6.0,35.0,86,0.00,,,0.20,,2013-05-29 22:12:00,
2013-05-29 17:23:00,84.0,79.0,30.00,South,184,8.0,35.0,86,0.00,,,0.20,,2013-05-29 22:23:00,
2013-05-29 17:33:00,84.0,79.0,30.00,SSE,164,6.0,35.0,86,0.00,,,0.20,,2013-05-29 22:33:00,
2013-05-29 17:42:00,84.0,79.0,30.00,South,179,7.0,35.0,86,0.00,,,0.20,,2013-05-29 22:42:00,
2013-05-29 17:53:00,84.0,79.0,30.00,South,179,7.0,35.0,86,0.00,,,0.20,,2013-05-29 22:53:00,
2013-05-29 18:02:00,83.0,78.0,30.00,South,172,7.0,35.0,86,0.00,,,0.20,,2013-05-29 23:02:00,
2013-05-29 18:12:00,83.0,78.0,30.00,South,172,7.0,35.0,86,0.00,,,0.20,,2013-05-29 23:12:00,
2013-05-29 18:21:00,83.0,78.0,30.00,South,172,7.0,35.0,86,0.00,,,0.20,,2013-05-29 23:21:00,
2013-05-29 18:33:00,81.0,76.0,30.00,South,169,6.0,35.0,86,0.00,,,0.20,,2013-05-29 23:33:00,
2013-05-29 18:42:00,81.0,76.0,30.00,South,179,6.0,35.0,86,0.00,,,0.20,,2013-05-29 23:42:00,
2013-05-29 18:53:00,81.0,76.0,30.00,South,179,6.0,35.0,86,0.00,,,0.20,,2013-05-29 23:53:00,
2013-05-29 19:01:00,81.0,76.0,30.00,SSE,163,7.0,35.0,86,0.00,,,0.20,,2013-05-30 00:01:00,
2013-05-29 19:11:00,81.0,76.0,30.00,SSE,163,7.0,35.0,86,0.00,,,0.20,,2013-05-30 00:11:00,
2013-05-29 19:21:00,80.0,75.0,30.00,SSE,165,6.0,35.0,86,0.00,,,0.20,,2013-05-30 00:21:00,
2013-05-29 19:31:00,80.0,75.0,30.00,SSE,164,3.0,35.0,86,0.00,,,0.20,,2013-05-30 00:31:00,
2013-05-29 19:42:00,80.0,75.0,30.00,SSE,164,3.0,35.0,86,0.00,,,0.20,,2013-05-30 00:42:00,
2013-05-29 19:52:00,79.0,74.0,30.00,SE,142,5.0,35.0,86,0.00,,,0.20,,2013-05-30 00:52:00,
2013-05-29 20:01:00,79.0,74.0,30.00,SE,142,5.0,35.0,86,0.00,,,0.20,,2013-05-30 01:01:00,
2013-05-29 20:11:00,79.0,74.0,30.00,SE,142,5.0,35.0,86,0.00,,,0.20,,2013-05-30 01:11:00,
2013-05-29 20:21:00,78.0,73.0,30.00,SE,132,5.0,35.0,86,0.00,,,0.20,,2013-05-30 01:21:00,
2013-05-29 20:32:00,78.0,73.0,30.00,SSE,160,3.0,35.0,86,0.00,,,0.20,,2013-05-30 01:32:00,
2013-05-29 20:42:00,78.0,73.0,30.00,SSE,160,3.0,35.0,86,0.00,,,0.20,,2013-05-30 01:42:00,
2013-05-29 20:52:00,77.0,72.0,30.00,SSE,154,3.0,35.0,86,0.00,,,0.20,,2013-05-30 01:52:00,
2013-05-29 21:01:00,76.0,72.0,30.00,SSE,154,5.0,35.0,86,0.00,,,0.20,,2013-05-30 02:01:00,
2013-05-29 21:11:00,76.0,72.0,30.00,SSE,154,5.0,35.0,86,0.00,,,0.20,,2013-05-30 02:11:00,
2013-05-29 21:21:00,76.0,72.0,30.00,SSE,159,3.0,35.0,86,0.00,,,0.20,,2013-05-30 02:21:00,
2013-05-29 21:32:00,75.0,71.0,30.00,SSE,148,3.0,35.0,86,0.00,,,0.20,,2013-05-30 02:32:00,
2013-05-29 21:42:00,75.0,71.0,30.00,SSE,148,3.0,35.0,86,0.00,,,0.20,,2013-05-30 02:42:00,
2013-05-29 21:52:00,75.0,71.0,30.00,SSE,148,3.0,35.0,86,0.00,,,0.20,,2013-05-30 02:52:00,
2013-05-29 22:01:00,74.0,70.0,30.00,SSE,162,5.0,35.0,86,0.00,,,0.20,,2013-05-30 03:01:00,
2013-05-29 22:11:00,74.0,70.0,30.00,SSE,167,5.0,35.0,86,0.00,,,0.17,,2013-05-30 03:11:00,
2013-05-29 22:21:00,74.0,70.0,30.00,SSE,167,5.0,35.0,86,0.00,,,0.17,,2013-05-30 03:21:00,
2013-05-29 22:33:00,74.0,70.0,30.00,SSE,154,2.0,35.0,86,0.00,,,0.16,,2013-05-30 03:33:00,
2013-05-29 22:43:00,74.0,70.0,30.00,SSE,154,2.0,35.0,86,0.00,,,0.16,,2013-05-30 03:43:00,
2013-05-29 22:53:00,74.0,70.0,30.00,SSE,164,3.0,35.0,86,0.00,,,0.16,,2013-05-30 03:53:00,
2013-05-29 23:02:00,74.0,70.0,30.00,South,188,3.0,35.0,86,0.00,,,0.15,,2013-05-30 04:02:00,
2013-05-29 23:12:00,74.0,70.0,30.00,South,188,3.0,35.0,86,0.00,,,0.15,,2013-05-30 04:12:00,
2013-05-29 23:23:00,74.0,70.0,30.00,SSE,156,5.0,35.0,86,0.00,,,0.13,,2013-05-30 04:23:00,
2013-05-29 23:32:00,74.0,70.0,30.00,SSE,156,5.0,35.0,86,0.00,,,0.13,,2013-05-30 04:32:00,
2013-05-29 23:42:00,74.0,70.0,30.00,SSE,156,5.0,35.0,86,0.00,,,0.13,,2013-05-30 04:42:00,
2013-05-29 23:53:00,72.0,68.0,30.00,SSE,157,3.0,35.0,86,0.00,,,0.11,,2013-05-30 04:53:00,